Year,Month,Day,Hour,Minute,Value (Times are PST for temperature in C)
2015,08,01,00,00,21.50
2015,08,01,00,01,21.50
2015,08,01,00,02,21.50
2015,08,01,00,03,21.50
2015,08,01,00,04,21.50
2015,08,01,00,05,21.50
2015,08,01,00,06,21.40
2015,08,01,00,07,21.40
2015,08,01,00,08,21.40
2015,08,01,00,09,21.40
2015,08,01,00,10,21.30
2015,08,01,00,11,21.30
2015,08,01,00,12,21.30
2015,08,01,00,13,21.30
2015,08,01,00,14,21.20
2015,08,01,00,15,21.20
2015,08,01,00,16,21.20
2015,08,01,00,17,21.10
2015,08,01,00,18,21.10
2015,08,01,00,19,21.00
2015,08,01,00,20,21.00
2015,08,01,00,21,20.90
2015,08,01,00,22,20.90
2015,08,01,00,23,20.90
2015,08,01,00,24,20.90
2015,08,01,00,25,20.80
2015,08,01,00,26,20.80
2015,08,01,00,27,20.80
2015,08,01,00,28,20.90
2015,08,01,00,29,20.90
2015,08,01,00,30,21.00
2015,08,01,00,31,21.00
2015,08,01,00,32,21.10
2015,08,01,00,33,21.10
2015,08,01,00,34,21.20
2015,08,01,00,35,21.20
2015,08,01,00,36,21.20
2015,08,01,00,37,21.20
2015,08,01,00,38,21.30
2015,08,01,00,39,21.30
2015,08,01,00,40,21.30
2015,08,01,00,41,21.30
2015,08,01,00,42,21.40
2015,08,01,00,43,21.40
2015,08,01,00,44,21.40
2015,08,01,00,45,21.40
2015,08,01,00,46,21.40
2015,08,01,00,47,21.40
2015,08,01,00,48,21.40
2015,08,01,00,49,21.40
2015,08,01,00,50,21.40
2015,08,01,00,51,21.40
2015,08,01,00,52,21.40
2015,08,01,00,53,21.40
2015,08,01,00,54,21.40
2015,08,01,00,55,21.40
2015,08,01,00,56,21.40
2015,08,01,00,57,21.40
2015,08,01,00,58,21.40
2015,08,01,00,59,21.30
2015,08,01,01,00,21.30
2015,08,01,01,01,21.30
2015,08,01,01,02,21.30
2015,08,01,01,03,21.20
2015,08,01,01,04,21.20
2015,08,01,01,05,21.20
2015,08,01,01,06,21.10
2015,08,01,01,07,21.10
2015,08,01,01,08,21.10
2015,08,01,01,09,21.00
2015,08,01,01,10,21.00
2015,08,01,01,11,21.00
2015,08,01,01,12,21.00
2015,08,01,01,13,20.90
2015,08,01,01,14,20.90
2015,08,01,01,15,20.90
2015,08,01,01,16,20.80
2015,08,01,01,17,20.80
2015,08,01,01,18,20.80
2015,08,01,01,19,20.70
2015,08,01,01,20,20.70
2015,08,01,01,21,20.60
2015,08,01,01,22,20.60
2015,08,01,01,23,20.60
2015,08,01,01,24,20.50
2015,08,01,01,25,20.50
2015,08,01,01,26,20.40
2015,08,01,01,27,20.40
2015,08,01,01,28,20.30
2015,08,01,01,29,20.30
2015,08,01,01,30,20.20
2015,08,01,01,31,20.20
2015,08,01,01,32,20.20
2015,08,01,01,33,20.20
2015,08,01,01,34,20.10
2015,08,01,01,35,20.10
2015,08,01,01,36,20.00
2015,08,01,01,37,20.00
2015,08,01,01,38,19.90
2015,08,01,01,39,19.90
2015,08,01,01,40,19.90
2015,08,01,01,41,19.80
2015,08,01,01,42,19.80
2015,08,01,01,43,19.80
2015,08,01,01,44,19.80
2015,08,01,01,45,19.70
2015,08,01,01,46,19.70
2015,08,01,01,47,19.70
2015,08,01,01,48,19.70
2015,08,01,01,49,19.70
2015,08,01,01,50,19.70
2015,08,01,01,51,19.70
2015,08,01,01,52,19.70
2015,08,01,01,53,19.70
2015,08,01,01,54,19.70
2015,08,01,01,55,19.70
2015,08,01,01,56,19.80
2015,08,01,01,57,19.80
2015,08,01,01,58,19.70
2015,08,01,01,59,19.70
2015,08,01,02,00,19.70
2015,08,01,02,01,19.70
2015,08,01,02,02,19.70
2015,08,01,02,03,19.70
2015,08,01,02,04,19.60
2015,08,01,02,05,19.60
2015,08,01,02,06,19.60
2015,08,01,02,07,19.60
2015,08,01,02,08,19.50
2015,08,01,02,09,19.50
2015,08,01,02,10,19.50
2015,08,01,02,11,19.50
2015,08,01,02,12,19.40
2015,08,01,02,13,19.40
2015,08,01,02,14,19.40
2015,08,01,02,15,19.40
2015,08,01,02,16,19.40
2015,08,01,02,17,19.40
2015,08,01,02,18,19.30
2015,08,01,02,19,19.30
2015,08,01,02,20,19.30
2015,08,01,02,21,19.30
2015,08,01,02,22,19.20
2015,08,01,02,23,19.20
2015,08,01,02,24,19.20
2015,08,01,02,25,19.20
2015,08,01,02,26,19.20
2015,08,01,02,27,19.20
2015,08,01,02,28,19.20
2015,08,01,02,29,19.20
2015,08,01,02,30,19.20
2015,08,01,02,31,19.20
2015,08,01,02,32,19.20
2015,08,01,02,33,19.20
2015,08,01,02,34,19.20
2015,08,01,02,35,19.20
2015,08,01,02,36,19.20
2015,08,01,02,37,19.20
2015,08,01,02,38,19.20
2015,08,01,02,39,19.20
2015,08,01,02,40,19.20
2015,08,01,02,41,19.10
2015,08,01,02,42,19.10
2015,08,01,02,43,19.10
2015,08,01,02,44,19.10
2015,08,01,02,45,19.10
2015,08,01,02,46,19.10
2015,08,01,02,47,19.10
2015,08,01,02,48,19.10
2015,08,01,02,49,19.10
2015,08,01,02,50,19.10
2015,08,01,02,51,19.00
2015,08,01,02,52,19.00
2015,08,01,02,53,19.00
2015,08,01,02,54,18.90
2015,08,01,02,55,18.90
2015,08,01,02,56,18.90
2015,08,01,02,57,18.90
2015,08,01,02,58,18.90
2015,08,01,02,59,18.90
2015,08,01,03,00,18.90
2015,08,01,03,01,18.80
2015,08,01,03,02,18.80
2015,08,01,03,03,18.80
2015,08,01,03,04,18.80
2015,08,01,03,05,18.80
2015,08,01,03,06,18.80
2015,08,01,03,07,18.70
2015,08,01,03,08,18.70
2015,08,01,03,09,18.70
2015,08,01,03,10,18.70
2015,08,01,03,11,18.70
2015,08,01,03,12,18.70
2015,08,01,03,13,18.70
2015,08,01,03,14,18.70
2015,08,01,03,15,18.70
2015,08,01,03,16,18.60
2015,08,01,03,17,18.60
2015,08,01,03,18,18.60
2015,08,01,03,19,18.60
2015,08,01,03,20,18.60
2015,08,01,03,21,18.60
2015,08,01,03,22,18.50
2015,08,01,03,23,18.50
2015,08,01,03,24,18.50
2015,08,01,03,25,18.50
2015,08,01,03,26,18.50
2015,08,01,03,27,18.50
2015,08,01,03,28,18.50
2015,08,01,03,29,18.50
2015,08,01,03,30,18.50
2015,08,01,03,31,18.50
2015,08,01,03,32,18.50
2015,08,01,03,33,18.50
2015,08,01,03,34,18.50
2015,08,01,03,35,18.50
2015,08,01,03,36,18.50
2015,08,01,03,37,18.50
2015,08,01,03,38,18.40
2015,08,01,03,39,18.40
2015,08,01,03,40,18.40
2015,08,01,03,41,18.40
2015,08,01,03,42,18.40
2015,08,01,03,43,18.40
2015,08,01,03,44,18.40
2015,08,01,03,45,18.40
2015,08,01,03,46,18.40
2015,08,01,03,47,18.40
2015,08,01,03,48,18.40
2015,08,01,03,49,18.40
2015,08,01,03,50,18.40
2015,08,01,03,51,18.30
2015,08,01,03,52,18.30
2015,08,01,03,53,18.30
2015,08,01,03,54,18.30
2015,08,01,03,55,18.30
2015,08,01,03,56,18.30
2015,08,01,03,57,18.30
2015,08,01,03,58,18.30
2015,08,01,03,59,18.30
2015,08,01,04,00,18.30
2015,08,01,04,01,18.20
2015,08,01,04,02,18.20
2015,08,01,04,03,18.20
2015,08,01,04,04,18.20
2015,08,01,04,05,18.20
2015,08,01,04,06,18.20
2015,08,01,04,07,18.20
2015,08,01,04,08,18.20
2015,08,01,04,09,18.20
2015,08,01,04,10,18.20
2015,08,01,04,11,18.20
2015,08,01,04,12,18.20
2015,08,01,04,13,18.20
2015,08,01,04,14,18.20
2015,08,01,04,15,18.20
2015,08,01,04,16,18.20
2015,08,01,04,17,18.20
2015,08,01,04,18,18.20
2015,08,01,04,19,18.20
2015,08,01,04,20,18.20
2015,08,01,04,21,18.20
2015,08,01,04,22,18.20
2015,08,01,04,23,18.20
2015,08,01,04,24,18.10
2015,08,01,04,25,18.10
2015,08,01,04,26,18.10
2015,08,01,04,27,18.10
2015,08,01,04,28,18.10
2015,08,01,04,29,18.10
2015,08,01,04,30,18.10
2015,08,01,04,31,18.10
2015,08,01,04,32,18.10
2015,08,01,04,33,18.10
2015,08,01,04,34,18.10
2015,08,01,04,35,18.10
2015,08,01,04,36,18.20
2015,08,01,04,37,18.20
2015,08,01,04,38,18.20
2015,08,01,04,39,18.20
2015,08,01,04,40,18.20
2015,08,01,04,41,18.20
2015,08,01,04,42,18.20
2015,08,01,04,43,18.20
2015,08,01,04,44,18.20
2015,08,01,04,45,18.20
2015,08,01,04,46,18.20
2015,08,01,04,47,18.20
2015,08,01,04,48,18.20
2015,08,01,04,49,18.20
2015,08,01,04,50,18.20
2015,08,01,04,51,18.20
2015,08,01,04,52,18.20
2015,08,01,04,53,18.20
2015,08,01,04,54,18.10
2015,08,01,04,55,18.10
2015,08,01,04,56,18.10
2015,08,01,04,57,18.10
2015,08,01,04,58,18.10
2015,08,01,04,59,18.10
2015,08,01,05,00,18.00
2015,08,01,05,01,18.00
2015,08,01,05,02,18.00
2015,08,01,05,03,18.00
2015,08,01,05,04,17.90
2015,08,01,05,05,17.90
2015,08,01,05,06,17.90
2015,08,01,05,07,17.90
2015,08,01,05,08,17.90
2015,08,01,05,09,17.90
2015,08,01,05,10,17.90
2015,08,01,05,11,17.90
2015,08,01,05,12,17.90
2015,08,01,05,13,18.00
2015,08,01,05,14,18.00
2015,08,01,05,15,18.00
2015,08,01,05,16,18.00
2015,08,01,05,17,18.00
2015,08,01,05,18,18.00
2015,08,01,05,19,18.00
2015,08,01,05,20,17.90
2015,08,01,05,21,17.90
2015,08,01,05,22,17.90
2015,08,01,05,23,17.90
2015,08,01,05,24,17.90
2015,08,01,05,25,17.90
2015,08,01,05,26,17.80
2015,08,01,05,27,17.80
2015,08,01,05,28,17.80
2015,08,01,05,29,17.80
2015,08,01,05,30,17.80
2015,08,01,05,31,17.80
2015,08,01,05,32,17.80
2015,08,01,05,33,17.80
2015,08,01,05,34,17.80
2015,08,01,05,35,17.80
2015,08,01,05,36,17.80
2015,08,01,05,37,17.80
2015,08,01,05,38,17.80
2015,08,01,05,39,17.80
2015,08,01,05,40,17.80
2015,08,01,05,41,17.70
2015,08,01,05,42,17.70
2015,08,01,05,43,17.70
2015,08,01,05,44,17.70
2015,08,01,05,45,17.70
2015,08,01,05,46,17.70
2015,08,01,05,47,17.60
2015,08,01,05,48,17.60
2015,08,01,05,49,17.60
2015,08,01,05,50,17.60
2015,08,01,05,51,17.60
2015,08,01,05,52,17.60
2015,08,01,05,53,17.60
2015,08,01,05,54,17.60
2015,08,01,05,55,17.60
2015,08,01,05,56,17.60
2015,08,01,05,57,17.60
2015,08,01,05,58,17.60
2015,08,01,05,59,17.60
2015,08,01,06,00,17.60
2015,08,01,06,01,17.60
2015,08,01,06,02,17.70
2015,08,01,06,03,17.70
2015,08,01,06,04,17.70
2015,08,01,06,05,17.70
2015,08,01,06,06,17.70
2015,08,01,06,07,17.70
2015,08,01,06,08,17.70
2015,08,01,06,09,17.70
2015,08,01,06,10,17.70
2015,08,01,06,11,17.80
2015,08,01,06,12,17.80
2015,08,01,06,13,17.80
2015,08,01,06,14,17.80
2015,08,01,06,15,17.80
2015,08,01,06,16,17.90
2015,08,01,06,17,17.90
2015,08,01,06,18,17.90
2015,08,01,06,19,17.90
2015,08,01,06,20,17.90
2015,08,01,06,21,17.90
2015,08,01,06,22,17.90
2015,08,01,06,23,17.90
2015,08,01,06,24,17.90
2015,08,01,06,25,18.00
2015,08,01,06,26,18.00
2015,08,01,06,27,18.00
2015,08,01,06,28,18.00
2015,08,01,06,29,18.00
2015,08,01,06,30,18.00
2015,08,01,06,31,18.00
2015,08,01,06,32,18.00
2015,08,01,06,33,18.00
2015,08,01,06,34,18.00
2015,08,01,06,35,18.10
2015,08,01,06,36,18.10
2015,08,01,06,37,18.10
2015,08,01,06,38,18.10
2015,08,01,06,39,18.10
2015,08,01,06,40,18.10
2015,08,01,06,41,18.10
2015,08,01,06,42,18.10
2015,08,01,06,43,18.10
2015,08,01,06,44,18.10
2015,08,01,06,45,18.10
2015,08,01,06,46,18.20
2015,08,01,06,47,18.20
2015,08,01,06,48,18.20
2015,08,01,06,49,18.30
2015,08,01,06,50,18.30
2015,08,01,06,51,18.40
2015,08,01,06,52,18.40
2015,08,01,06,53,18.40
2015,08,01,06,54,18.50
2015,08,01,06,55,18.60
2015,08,01,06,56,18.60
2015,08,01,06,57,18.60
2015,08,01,06,58,18.70
2015,08,01,06,59,18.70
2015,08,01,07,00,18.70
2015,08,01,07,01,18.80
2015,08,01,07,02,18.80
2015,08,01,07,03,18.80
2015,08,01,07,04,18.90
2015,08,01,07,05,18.90
2015,08,01,07,06,18.90
2015,08,01,07,07,18.90
2015,08,01,07,08,19.00
2015,08,01,07,09,19.00
2015,08,01,07,10,19.10
2015,08,01,07,11,19.10
2015,08,01,07,12,19.10
2015,08,01,07,13,19.10
2015,08,01,07,14,19.20
2015,08,01,07,15,19.20
2015,08,01,07,16,19.20
2015,08,01,07,17,19.30
2015,08,01,07,18,19.30
2015,08,01,07,19,19.30
2015,08,01,07,20,19.40
2015,08,01,07,21,19.40
2015,08,01,07,22,19.50
2015,08,01,07,23,19.50
2015,08,01,07,24,19.60
2015,08,01,07,25,19.60
2015,08,01,07,26,19.60
2015,08,01,07,27,19.60
2015,08,01,07,28,19.60
2015,08,01,07,29,19.60
2015,08,01,07,30,19.70
2015,08,01,07,31,19.70
2015,08,01,07,32,19.70
2015,08,01,07,33,19.70
2015,08,01,07,34,19.80
2015,08,01,07,35,19.80
2015,08,01,07,36,19.80
2015,08,01,07,37,19.80
2015,08,01,07,38,19.90
2015,08,01,07,39,19.90
2015,08,01,07,40,20.00
2015,08,01,07,41,20.00
2015,08,01,07,42,20.10
2015,08,01,07,43,20.10
2015,08,01,07,44,20.20
2015,08,01,07,45,20.20
2015,08,01,07,46,20.20
2015,08,01,07,47,20.20
2015,08,01,07,48,20.20
2015,08,01,07,49,20.20
2015,08,01,07,50,20.20
2015,08,01,07,51,20.20
2015,08,01,07,52,20.20
2015,08,01,07,53,20.20
2015,08,01,07,54,20.20
2015,08,01,07,55,20.30
2015,08,01,07,56,20.30
2015,08,01,07,57,20.30
2015,08,01,07,58,20.30
2015,08,01,07,59,20.40
2015,08,01,08,00,20.40
2015,08,01,08,01,20.50
2015,08,01,08,02,20.50
2015,08,01,08,03,20.50
2015,08,01,08,04,20.60
2015,08,01,08,05,20.60
2015,08,01,08,06,20.60
2015,08,01,08,07,20.60
2015,08,01,08,08,20.70
2015,08,01,08,09,20.70
2015,08,01,08,10,20.70
2015,08,01,08,11,20.70
2015,08,01,08,12,20.60
2015,08,01,08,13,20.60
2015,08,01,08,14,20.60
2015,08,01,08,15,20.60
2015,08,01,08,16,20.70
2015,08,01,08,17,20.70
2015,08,01,08,18,20.70
2015,08,01,08,19,20.80
2015,08,01,08,20,20.80
2015,08,01,08,21,20.90
2015,08,01,08,22,20.90
2015,08,01,08,23,20.90
2015,08,01,08,24,20.90
2015,08,01,08,25,21.00
2015,08,01,08,26,20.90
2015,08,01,08,27,20.90
2015,08,01,08,28,20.90
2015,08,01,08,29,20.90
2015,08,01,08,30,20.90
2015,08,01,08,31,20.90
2015,08,01,08,32,20.90
2015,08,01,08,33,20.90
2015,08,01,08,34,20.90
2015,08,01,08,35,20.90
2015,08,01,08,36,20.90
2015,08,01,08,37,21.00
2015,08,01,08,38,21.00
2015,08,01,08,39,21.10
2015,08,01,08,40,21.20
2015,08,01,08,41,21.20
2015,08,01,08,42,21.20
2015,08,01,08,43,21.20
2015,08,01,08,44,21.20
2015,08,01,08,45,21.20
2015,08,01,08,46,21.20
2015,08,01,08,47,21.20
2015,08,01,08,48,21.20
2015,08,01,08,49,21.20
2015,08,01,08,50,21.20
2015,08,01,08,51,21.20
2015,08,01,08,52,21.20
2015,08,01,08,53,21.20
2015,08,01,08,54,21.20
2015,08,01,08,55,21.30
2015,08,01,08,56,21.30
2015,08,01,08,57,21.40
2015,08,01,08,58,21.40
2015,08,01,08,59,21.40
2015,08,01,09,00,21.40
2015,08,01,09,01,21.40
2015,08,01,09,02,21.50
2015,08,01,09,03,21.50
2015,08,01,09,04,21.60
2015,08,01,09,05,21.60
2015,08,01,09,06,21.70
2015,08,01,09,07,21.70
2015,08,01,09,08,21.70
2015,08,01,09,09,21.80
2015,08,01,09,10,21.80
2015,08,01,09,11,21.80
2015,08,01,09,12,21.90
2015,08,01,09,13,21.90
2015,08,01,09,14,22.00
2015,08,01,09,15,22.00
2015,08,01,09,16,22.00
2015,08,01,09,17,21.90
2015,08,01,09,18,21.80
2015,08,01,09,19,21.80
2015,08,01,09,20,21.70
2015,08,01,09,21,21.60
2015,08,01,09,22,21.50
2015,08,01,09,23,21.40
2015,08,01,09,24,21.30
2015,08,01,09,25,21.20
2015,08,01,09,26,21.20
2015,08,01,09,27,21.20
2015,08,01,09,28,21.20
2015,08,01,09,29,21.20
2015,08,01,09,30,21.30
2015,08,01,09,31,21.30
2015,08,01,09,32,21.40
2015,08,01,09,33,21.50
2015,08,01,09,34,21.60
2015,08,01,09,35,21.70
2015,08,01,09,36,21.80
2015,08,01,09,37,21.80
2015,08,01,09,38,21.80
2015,08,01,09,39,21.90
2015,08,01,09,40,21.80
2015,08,01,09,41,21.90
2015,08,01,09,42,21.80
2015,08,01,09,43,21.80
2015,08,01,09,44,21.90
2015,08,01,09,45,21.90
2015,08,01,09,46,21.90
2015,08,01,09,47,21.90
2015,08,01,09,48,21.90
2015,08,01,09,49,21.90
2015,08,01,09,50,22.00
2015,08,01,09,51,22.10
2015,08,01,09,52,22.20
2015,08,01,09,53,22.30
2015,08,01,09,54,22.40
2015,08,01,09,55,22.50
2015,08,01,09,56,22.50
2015,08,01,09,57,22.60
2015,08,01,09,58,22.70
2015,08,01,09,59,22.70
2015,08,01,10,00,22.80
2015,08,01,10,01,22.90
2015,08,01,10,02,22.90
2015,08,01,10,03,22.90
2015,08,01,10,04,22.90
2015,08,01,10,05,22.80
2015,08,01,10,06,22.70
2015,08,01,10,07,22.70
2015,08,01,10,08,22.60
2015,08,01,10,09,22.50
2015,08,01,10,10,22.40
2015,08,01,10,11,22.40
2015,08,01,10,12,22.30
2015,08,01,10,13,22.30
2015,08,01,10,14,22.30
2015,08,01,10,15,22.30
2015,08,01,10,16,22.30
2015,08,01,10,17,22.30
2015,08,01,10,18,22.20
2015,08,01,10,19,22.20
2015,08,01,10,20,22.20
2015,08,01,10,21,22.20
2015,08,01,10,22,22.20
2015,08,01,10,23,22.20
2015,08,01,10,24,22.20
2015,08,01,10,25,22.20
2015,08,01,10,26,22.20
2015,08,01,10,27,22.20
2015,08,01,10,28,22.20
2015,08,01,10,29,22.30
2015,08,01,10,30,22.40
2015,08,01,10,31,22.50
2015,08,01,10,32,22.60
2015,08,01,10,33,22.60
2015,08,01,10,34,22.70
2015,08,01,10,35,22.70
2015,08,01,10,36,22.70
2015,08,01,10,37,22.60
2015,08,01,10,38,22.60
2015,08,01,10,39,22.50
2015,08,01,10,40,22.40
2015,08,01,10,41,22.40
2015,08,01,10,42,22.30
2015,08,01,10,43,22.20
2015,08,01,10,44,22.10
2015,08,01,10,45,22.10
2015,08,01,10,46,22.00
2015,08,01,10,47,21.90
2015,08,01,10,48,21.90
2015,08,01,10,49,21.90
2015,08,01,10,50,21.90
2015,08,01,10,51,21.90
2015,08,01,10,52,21.90
2015,08,01,10,53,21.90
2015,08,01,10,54,22.00
2015,08,01,10,55,22.10
2015,08,01,10,56,22.10
2015,08,01,10,57,22.20
2015,08,01,10,58,22.30
2015,08,01,10,59,22.30
2015,08,01,11,00,22.40
2015,08,01,11,01,22.50
2015,08,01,11,02,22.60
2015,08,01,11,03,22.60
2015,08,01,11,04,22.70
2015,08,01,11,05,22.70
2015,08,01,11,06,22.70
2015,08,01,11,07,22.70
2015,08,01,11,08,22.80
2015,08,01,11,09,22.90
2015,08,01,11,10,23.00
2015,08,01,11,11,23.00
2015,08,01,11,12,23.00
2015,08,01,11,13,23.00
2015,08,01,11,14,22.90
2015,08,01,11,15,22.90
2015,08,01,11,16,22.90
2015,08,01,11,17,22.90
2015,08,01,11,18,22.90
2015,08,01,11,19,22.90
2015,08,01,11,20,22.80
2015,08,01,11,21,22.80
2015,08,01,11,22,22.70
2015,08,01,11,23,22.70
2015,08,01,11,24,22.70
2015,08,01,11,25,22.70
2015,08,01,11,26,22.60
2015,08,01,11,27,22.60
2015,08,01,11,28,22.60
2015,08,01,11,29,22.60
2015,08,01,11,30,22.60
2015,08,01,11,31,22.60
2015,08,01,11,32,22.70
2015,08,01,11,33,22.70
2015,08,01,11,34,22.70
2015,08,01,11,35,22.70
2015,08,01,11,36,22.70
2015,08,01,11,37,22.70
2015,08,01,11,38,22.80
2015,08,01,11,39,22.80
2015,08,01,11,40,22.80
2015,08,01,11,41,22.80
2015,08,01,11,42,22.80
2015,08,01,11,43,22.80
2015,08,01,11,44,22.80
2015,08,01,11,45,22.90
2015,08,01,11,46,22.90
2015,08,01,11,47,22.90
2015,08,01,11,48,22.90
2015,08,01,11,49,22.90
2015,08,01,11,50,22.90
2015,08,01,11,51,23.00
2015,08,01,11,52,23.00
2015,08,01,11,53,23.00
2015,08,01,11,54,23.10
2015,08,01,11,55,23.10
2015,08,01,11,56,23.10
2015,08,01,11,57,23.10
2015,08,01,11,58,23.20
2015,08,01,11,59,23.20
2015,08,01,12,00,23.20
2015,08,01,12,01,23.20
2015,08,01,12,02,23.20
2015,08,01,12,03,23.20
2015,08,01,12,04,23.20
2015,08,01,12,05,23.20
2015,08,01,12,06,23.20
2015,08,01,12,07,23.20
2015,08,01,12,08,23.20
2015,08,01,12,09,23.20
2015,08,01,12,10,23.20
2015,08,01,12,11,23.20
2015,08,01,12,12,23.20
2015,08,01,12,13,23.10
2015,08,01,12,14,23.00
2015,08,01,12,15,22.90
2015,08,01,12,16,22.90
2015,08,01,12,17,22.90
2015,08,01,12,18,23.00
2015,08,01,12,19,23.10
2015,08,01,12,20,23.20
2015,08,01,12,21,23.30
2015,08,01,12,22,23.30
2015,08,01,12,23,23.30
2015,08,01,12,24,23.30
2015,08,01,12,25,23.20
2015,08,01,12,26,23.20
2015,08,01,12,27,23.10
2015,08,01,12,28,23.00
2015,08,01,12,29,23.00
2015,08,01,12,30,22.90
2015,08,01,12,31,22.90
2015,08,01,12,32,22.90
2015,08,01,12,33,22.90
2015,08,01,12,34,23.00
2015,08,01,12,35,23.00
2015,08,01,12,36,23.10
2015,08,01,12,37,23.10
2015,08,01,12,38,23.20
2015,08,01,12,39,23.20
2015,08,01,12,40,23.10
2015,08,01,12,41,23.10
2015,08,01,12,42,23.00
2015,08,01,12,43,23.10
2015,08,01,12,44,23.10
2015,08,01,12,45,23.10
2015,08,01,12,46,23.10
2015,08,01,12,47,23.00
2015,08,01,12,48,23.00
2015,08,01,12,49,23.10
2015,08,01,12,50,23.10
2015,08,01,12,51,23.20
2015,08,01,12,52,23.20
2015,08,01,12,53,23.20
2015,08,01,12,54,23.20
2015,08,01,12,55,23.30
2015,08,01,12,56,23.30
2015,08,01,12,57,23.40
2015,08,01,12,58,23.40
2015,08,01,12,59,23.50
2015,08,01,13,00,23.60
2015,08,01,13,01,23.70
2015,08,01,13,02,23.70
2015,08,01,13,03,23.70
2015,08,01,13,04,23.70
2015,08,01,13,05,23.70
2015,08,01,13,06,23.80
2015,08,01,13,07,23.90
2015,08,01,13,08,23.90
2015,08,01,13,09,24.00
2015,08,01,13,10,24.20
2015,08,01,13,11,24.20
2015,08,01,13,12,24.30
2015,08,01,13,13,24.50
2015,08,01,13,14,24.60
2015,08,01,13,15,24.70
2015,08,01,13,16,24.70
2015,08,01,13,17,24.60
2015,08,01,13,18,24.40
2015,08,01,13,19,24.30
2015,08,01,13,20,24.20
2015,08,01,13,21,24.20
2015,08,01,13,22,24.20
2015,08,01,13,23,24.20
2015,08,01,13,24,24.30
2015,08,01,13,25,24.30
2015,08,01,13,26,24.30
2015,08,01,13,27,24.30
2015,08,01,13,28,24.30
2015,08,01,13,29,24.30
2015,08,01,13,30,24.30
2015,08,01,13,31,24.30
2015,08,01,13,32,24.30
2015,08,01,13,33,24.40
2015,08,01,13,34,24.40
2015,08,01,13,35,24.40
2015,08,01,13,36,24.30
2015,08,01,13,37,24.30
2015,08,01,13,38,24.20
2015,08,01,13,39,24.20
2015,08,01,13,40,24.30
2015,08,01,13,41,24.40
2015,08,01,13,42,24.50
2015,08,01,13,43,24.60
2015,08,01,13,44,24.70
2015,08,01,13,45,24.70
2015,08,01,13,46,24.80
2015,08,01,13,47,24.80
2015,08,01,13,48,24.90
2015,08,01,13,49,24.90
2015,08,01,13,50,25.00
2015,08,01,13,51,25.20
2015,08,01,13,52,25.30
2015,08,01,13,53,25.40
2015,08,01,13,54,25.50
2015,08,01,13,55,25.40
2015,08,01,13,56,25.40
2015,08,01,13,57,25.30
2015,08,01,13,58,25.20
2015,08,01,13,59,25.10
2015,08,01,14,00,25.10
2015,08,01,14,01,25.00
2015,08,01,14,02,25.00
2015,08,01,14,03,24.90
2015,08,01,14,04,25.00
2015,08,01,14,05,25.00
2015,08,01,14,06,25.00
2015,08,01,14,07,25.00
2015,08,01,14,08,25.00
2015,08,01,14,09,25.00
2015,08,01,14,10,25.10
2015,08,01,14,11,25.10
2015,08,01,14,12,25.10
2015,08,01,14,13,25.10
2015,08,01,14,14,25.10
2015,08,01,14,15,25.20
2015,08,01,14,16,25.30
2015,08,01,14,17,25.50
2015,08,01,14,18,25.50
2015,08,01,14,19,25.60
2015,08,01,14,20,25.50
2015,08,01,14,21,25.50
2015,08,01,14,22,25.40
2015,08,01,14,23,25.30
2015,08,01,14,24,25.10
2015,08,01,14,25,25.00
2015,08,01,14,26,25.00
2015,08,01,14,27,24.90
2015,08,01,14,28,24.90
2015,08,01,14,29,24.90
2015,08,01,14,30,25.00
2015,08,01,14,31,25.10
2015,08,01,14,32,25.20
2015,08,01,14,33,25.30
2015,08,01,14,34,25.40
2015,08,01,14,35,25.40
2015,08,01,14,36,25.30
2015,08,01,14,37,25.30
2015,08,01,14,38,25.30
2015,08,01,14,39,25.30
2015,08,01,14,40,25.30
2015,08,01,14,41,25.20
2015,08,01,14,42,25.10
2015,08,01,14,43,25.10
2015,08,01,14,44,25.00
2015,08,01,14,45,25.00
2015,08,01,14,46,24.90
2015,08,01,14,47,24.90
2015,08,01,14,48,24.90
2015,08,01,14,49,24.90
2015,08,01,14,50,24.90
2015,08,01,14,51,24.90
2015,08,01,14,52,24.90
2015,08,01,14,53,24.90
2015,08,01,14,54,25.00
2015,08,01,14,55,25.00
2015,08,01,14,56,25.10
2015,08,01,14,57,25.20
2015,08,01,14,58,25.30
2015,08,01,14,59,25.30
2015,08,01,15,00,25.30
2015,08,01,15,01,25.20
2015,08,01,15,02,25.20
2015,08,01,15,03,25.10
2015,08,01,15,04,25.10
2015,08,01,15,05,25.00
2015,08,01,15,06,25.00
2015,08,01,15,07,24.90
2015,08,01,15,08,24.90
2015,08,01,15,09,25.00
2015,08,01,15,10,25.00
2015,08,01,15,11,25.20
2015,08,01,15,12,25.30
2015,08,01,15,13,25.30
2015,08,01,15,14,25.40
2015,08,01,15,15,25.40
2015,08,01,15,16,25.50
2015,08,01,15,17,25.60
2015,08,01,15,18,25.60
2015,08,01,15,19,25.70
2015,08,01,15,20,25.70
2015,08,01,15,21,25.70
2015,08,01,15,22,25.70
2015,08,01,15,23,25.70
2015,08,01,15,24,25.60
2015,08,01,15,25,25.60
2015,08,01,15,26,25.60
2015,08,01,15,27,25.60
2015,08,01,15,28,25.60
2015,08,01,15,29,25.70
2015,08,01,15,30,25.70
2015,08,01,15,31,25.80
2015,08,01,15,32,25.80
2015,08,01,15,33,25.80
2015,08,01,15,34,25.80
2015,08,01,15,35,25.90
2015,08,01,15,36,25.90
2015,08,01,15,37,25.90
2015,08,01,15,38,25.90
2015,08,01,15,39,25.90
2015,08,01,15,40,25.90
2015,08,01,15,41,26.00
2015,08,01,15,42,26.10
2015,08,01,15,43,26.20
2015,08,01,15,44,26.20
2015,08,01,15,45,26.10
2015,08,01,15,46,26.00
2015,08,01,15,47,25.90
2015,08,01,15,48,25.90
2015,08,01,15,49,25.90
2015,08,01,15,50,25.90
2015,08,01,15,51,25.90
2015,08,01,15,52,25.90
2015,08,01,15,53,25.90
2015,08,01,15,54,25.90
2015,08,01,15,55,25.80
2015,08,01,15,56,25.80
2015,08,01,15,57,25.80
2015,08,01,15,58,25.70
2015,08,01,15,59,25.70
2015,08,01,16,00,25.70
2015,08,01,16,01,25.70
2015,08,01,16,02,25.80
2015,08,01,16,03,25.80
2015,08,01,16,04,25.90
2015,08,01,16,05,25.90
2015,08,01,16,06,26.00
2015,08,01,16,07,26.20
2015,08,01,16,08,26.30
2015,08,01,16,09,26.40
2015,08,01,16,10,26.50
2015,08,01,16,11,26.60
2015,08,01,16,12,26.70
2015,08,01,16,13,26.70
2015,08,01,16,14,26.70
2015,08,01,16,15,26.80
2015,08,01,16,16,26.90
2015,08,01,16,17,27.00
2015,08,01,16,18,27.00
2015,08,01,16,19,27.10
2015,08,01,16,20,27.00
2015,08,01,16,21,27.00
2015,08,01,16,22,26.90
2015,08,01,16,23,26.90
2015,08,01,16,24,26.90
2015,08,01,16,25,27.00
2015,08,01,16,26,27.10
2015,08,01,16,27,27.20
2015,08,01,16,28,27.30
2015,08,01,16,29,27.30
2015,08,01,16,30,27.30
2015,08,01,16,31,27.30
2015,08,01,16,32,27.30
2015,08,01,16,33,27.30
2015,08,01,16,34,27.40
2015,08,01,16,35,27.40
2015,08,01,16,36,27.50
2015,08,01,16,37,27.50
2015,08,01,16,38,27.60
2015,08,01,16,39,27.70
2015,08,01,16,40,27.70
2015,08,01,16,41,27.80
2015,08,01,16,42,27.80
2015,08,01,16,43,27.80
2015,08,01,16,44,27.80
2015,08,01,16,45,27.80
2015,08,01,16,46,27.70
2015,08,01,16,47,27.70
2015,08,01,16,48,27.60
2015,08,01,16,49,27.60
2015,08,01,16,50,27.50
2015,08,01,16,51,27.50
2015,08,01,16,52,27.40
2015,08,01,16,53,27.40
2015,08,01,16,54,27.30
2015,08,01,16,55,27.20
2015,08,01,16,56,27.20
2015,08,01,16,57,27.20
2015,08,01,16,58,27.20
2015,08,01,16,59,27.30
2015,08,01,17,00,27.40
2015,08,01,17,01,27.40
2015,08,01,17,02,27.50
2015,08,01,17,03,27.50
2015,08,01,17,04,27.50
2015,08,01,17,05,27.60
2015,08,01,17,06,27.60
2015,08,01,17,07,27.60
2015,08,01,17,08,27.50
2015,08,01,17,09,27.50
2015,08,01,17,10,27.40
2015,08,01,17,11,27.40
2015,08,01,17,12,27.30
2015,08,01,17,13,27.30
2015,08,01,17,14,27.20
2015,08,01,17,15,27.20
2015,08,01,17,16,27.10
2015,08,01,17,17,27.10
2015,08,01,17,18,27.10
2015,08,01,17,19,27.10